When you browse on this site, cookies collect data to enhance your experience and personalize the content and advertising you see.
Visit our Privacy Policy to learn more. By continuing to use the site, you agree to this use of cookies and data.
  • In Schweiz
  • Länderverzeichnis
  • Für 7 Tage
  • Wassertemperatur
  • Satellitenkarten
  • Wetterkarte
  • Widgets
  • user-avatar
    Anmelden

    Stündliche Wetter Sulukta

    Heute, 24 März, Sonntag

    Zeit Temperatur Niederschläge Wind Luftdruck Luftfeuchtigkeit
    00:00 +3°C° 0 mm 2 m/S 649 mmHg 81%
    01:00 +3°C° 0 mm 2 m/S 649 mmHg 79%
    02:00 +2°C° 0 mm 2 m/S 650 mmHg 78%
    03:00 +2°C° 0 mm 2 m/S 650 mmHg 76%
    04:00 +2°C° 0 mm 2 m/S 649 mmHg 74%
    05:00 +1°C° 0 mm 2 m/S 649 mmHg 70%
    06:00 +2°C° 0 mm 2 m/S 649 mmHg 66%
    07:00 +4°C° 0 mm 1 m/S 650 mmHg 62%
    08:00 +5°C° 0 mm 1 m/S 650 mmHg 58%
    09:00 +5°C° 0 mm 2 m/S 650 mmHg 58%
    10:00 +7°C° 0 mm 2 m/S 650 mmHg 58%
    11:00 +8°C° 0 mm 2 m/S 650 mmHg 57%
    12:00 +9°C° 0 mm 2 m/S 650 mmHg 55%
    13:00 +10°C° 0 mm 3 m/S 650 mmHg 52%
    14:00 +11°C° 0 mm 3 m/S 650 mmHg 50%
    15:00 +11°C° 0 mm 3 m/S 649 mmHg 50%
    16:00 +11°C° 0 mm 3 m/S 649 mmHg 49%
    17:00 +11°C° 0 mm 3 m/S 649 mmHg 49%
    18:00 +10°C° 0 mm 2 m/S 649 mmHg 50%
    19:00 +9°C° 0 mm 2 m/S 649 mmHg 52%
    20:00 +7°C° 0 mm 2 m/S 650 mmHg 53%
    21:00 +7°C° 0 mm 2 m/S 649 mmHg 50%
    22:00 +7°C° 0 mm 3 m/S 649 mmHg 48%
    23:00 +5°C° 0 mm 3 m/S 649 mmHg 45%

    Morgen, 25 März, Montag

    Zeit Temperatur Niederschläge Wind Luftdruck Luftfeuchtigkeit
    00:00 +5°C° 0 mm 3 m/S 649 mmHg 44%
    01:00 +5°C° 0 mm 4 m/S 649 mmHg 43%
    02:00 +5°C° 0 mm 4 m/S 649 mmHg 42%
    03:00 +5°C° 0 mm 4 m/S 649 mmHg 42%
    04:00 +5°C° 0 mm 4 m/S 649 mmHg 42%
    05:00 +5°C° 0 mm 4 m/S 649 mmHg 42%
    06:00 +6°C° 0 mm 4 m/S 649 mmHg 41%
    07:00 +6°C° 0 mm 4 m/S 649 mmHg 41%
    08:00 +7°C° 0 mm 4 m/S 650 mmHg 40%
    09:00 +10°C° 0 mm 3 m/S 650 mmHg 37%
    10:00 +11°C° 0 mm 3 m/S 650 mmHg 33%
    11:00 +13°C° 0 mm 3 m/S 651 mmHg 30%
    12:00 +14°C° 0 mm 3 m/S 651 mmHg 30%
    13:00 +14°C° 0 mm 3 m/S 651 mmHg 29%
    14:00 +16°C° 0 mm 3 m/S 651 mmHg 29%
    15:00 +16°C° 0 mm 3 m/S 651 mmHg 29%
    16:00 +16°C° 0 mm 3 m/S 650 mmHg 30%
    17:00 +15°C° 0 mm 4 m/S 650 mmHg 30%
    18:00 +13°C° 0 mm 4 m/S 650 mmHg 32%
    19:00 +12°C° 0 mm 4 m/S 650 mmHg 34%
    20:00 +10°C° 0 mm 4 m/S 650 mmHg 36%
    21:00 +10°C° 0 mm 4 m/S 650 mmHg 35%
    22:00 +8°C° 0 mm 4 m/S 650 mmHg 33%
    23:00 +8°C° 0 mm 4 m/S 650 mmHg 31%

    übermorgen, 26 März, Dienstag

    Zeit Temperatur Niederschläge Wind Luftdruck Luftfeuchtigkeit
    00:00 +8°C° 0 mm 4 m/S 649 mmHg 31%
    01:00 +8°C° 0 mm 5 m/S 649 mmHg 31%
    02:00 +7°C° 0 mm 5 m/S 649 mmHg 30%
    03:00 +7°C° 0 mm 5 m/S 649 mmHg 31%
    04:00 +7°C° 0 mm 5 m/S 649 mmHg 31%
    05:00 +7°C° 0 mm 5 m/S 649 mmHg 32%
    06:00 +8°C° 0 mm 5 m/S 649 mmHg 31%
    07:00 +8°C° 0 mm 5 m/S 649 mmHg 31%
    08:00 +9°C° 0 mm 5 m/S 649 mmHg 31%
    09:00 +12°C° 0 mm 5 m/S 649 mmHg 29%
    10:00 +14°C° 0 mm 6 m/S 650 mmHg 27%
    11:00 +16°C° 0 mm 6 m/S 650 mmHg 25%
    12:00 +16°C° 0 mm 6 m/S 650 mmHg 25%
    13:00 +17°C° 0 mm 5 m/S 650 mmHg 25%
    14:00 +17°C° 0 mm 5 m/S 649 mmHg 24%
    15:00 +18°C° 0 mm 4 m/S 649 mmHg 26%
    16:00 +18°C° 0 mm 4 m/S 649 mmHg 28%
    17:00 +17°C° 0 mm 3 m/S 649 mmHg 30%
    18:00 +17°C° 0 mm 3 m/S 649 mmHg 31%
    19:00 +16°C° 0 mm 3 m/S 649 mmHg 33%
    20:00 +14°C° 0 mm 3 m/S 648 mmHg 34%
    21:00 +14°C° 0 mm 2 m/S 648 mmHg 36%
    22:00 +13°C° 0 mm 2 m/S 648 mmHg 39%
    23:00 +12°C° 0 mm 2 m/S 648 mmHg 41%

    27 März, Mittwoch

    Zeit Temperatur Niederschläge Wind Luftdruck Luftfeuchtigkeit
    00:00 +12°C° 0 mm 2 m/S 648 mmHg 49%
    01:00 +10°C° 0 mm 2 m/S 647 mmHg 57%
    02:00 +10°C° 0 mm 2 m/S 647 mmHg 65%
    03:00 +9°C° 0.2 mm 2 m/S 647 mmHg 72%
    04:00 +9°C° 0.2 mm 3 m/S 647 mmHg 79%
    05:00 +9°C° 0.2 mm 3 m/S 647 mmHg 87%
    06:00 +9°C° 0.4 mm 3 m/S 647 mmHg 85%
    07:00 +9°C° 0.4 mm 2 m/S 647 mmHg 84%
    08:00 +9°C° 0.4 mm 2 m/S 648 mmHg 82%
    09:00 +12°C° 0 mm 2 m/S 648 mmHg 71%
    10:00 +14°C° 0 mm 2 m/S 648 mmHg 59%
    11:00 +15°C° 0 mm 2 m/S 649 mmHg 48%
    12:00 +15°C° 0.1 mm 2 m/S 648 mmHg 46%
    13:00 +16°C° 0.1 mm 3 m/S 648 mmHg 44%
    14:00 +16°C° 0.1 mm 3 m/S 648 mmHg 42%
    15:00 +14°C° 0.5 mm 3 m/S 647 mmHg 47%
    16:00 +14°C° 0.5 mm 2 m/S 647 mmHg 52%
    17:00 +13°C° 0.5 mm 2 m/S 647 mmHg 57%
    18:00 +13°C° 0.3 mm 2 m/S 647 mmHg 59%
    19:00 +13°C° 0.3 mm 2 m/S 647 mmHg 60%
    20:00 +12°C° 0.3 mm 2 m/S 647 mmHg 61%
    21:00 +11°C° 0.3 mm 3 m/S 647 mmHg 61%
    22:00 +11°C° 0.3 mm 3 m/S 647 mmHg 60%
    23:00 +11°C° 0.3 mm 3 m/S 648 mmHg 60%

    28 März, Donnerstag

    Zeit Temperatur Niederschläge Wind Luftdruck Luftfeuchtigkeit
    00:00 +11°C° 0.1 mm 3 m/S 647 mmHg 59%
    01:00 +11°C° 0.1 mm 3 m/S 647 mmHg 57%
    02:00 +11°C° 0.1 mm 3 m/S 647 mmHg 56%
    03:00 +11°C° 0.7 mm 3 m/S 646 mmHg 61%
    04:00 +12°C° 0.7 mm 2 m/S 646 mmHg 65%
    05:00 +11°C° 0.7 mm 1 m/S 646 mmHg 70%
    06:00 +10°C° 2.3 mm 2 m/S 646 mmHg 74%
    07:00 +9°C° 2.3 mm 2 m/S 647 mmHg 79%
    08:00 +9°C° 2.3 mm 3 m/S 647 mmHg 84%
    09:00 +10°C° 0.7 mm 3 m/S 647 mmHg 77%
    10:00 +13°C° 0.7 mm 2 m/S 648 mmHg 70%
    11:00 +14°C° 0.7 mm 2 m/S 649 mmHg 62%
    12:00 +14°C° 0.5 mm 2 m/S 649 mmHg 64%
    13:00 +14°C° 0.5 mm 2 m/S 649 mmHg 65%
    14:00 +14°C° 0.5 mm 2 m/S 649 mmHg 66%
    15:00 +14°C° 0.7 mm 2 m/S 649 mmHg 69%
    16:00 +13°C° 0.7 mm 2 m/S 649 mmHg 71%
    17:00 +13°C° 0.7 mm 1 m/S 649 mmHg 74%
    18:00 +12°C° 0.5 mm 2 m/S 649 mmHg 75%
    19:00 +12°C° 0.5 mm 2 m/S 649 mmHg 75%
    20:00 +10°C° 0.5 mm 2 m/S 649 mmHg 75%
    21:00 +10°C° 0 mm 2 m/S 649 mmHg 75%
    22:00 +9°C° 0 mm 2 m/S 649 mmHg 74%
    23:00 +9°C° 0 mm 2 m/S 649 mmHg 74%

    29 März, Freitag

    Zeit Temperatur Niederschläge Wind Luftdruck Luftfeuchtigkeit
    00:00 +8°C° 0 mm 2 m/S 649 mmHg 71%
    01:00 +8°C° 0 mm 2 m/S 648 mmHg 69%
    02:00 +8°C° 0 mm 2 m/S 648 mmHg 66%
    03:00 +9°C° 0 mm 1 m/S 648 mmHg 68%
    04:00 +9°C° 0 mm 1 m/S 647 mmHg 70%
    05:00 +8°C° 0 mm 1 m/S 646 mmHg 72%
    06:00 +9°C° 0.1 mm 1 m/S 647 mmHg 76%
    07:00 +9°C° 0.1 mm 1 m/S 647 mmHg 80%
    08:00 +9°C° 0.1 mm 1 m/S 647 mmHg 85%
    09:00 +9°C° 0.3 mm 1 m/S 647 mmHg 85%
    10:00 +10°C° 0.3 mm 1 m/S 646 mmHg 85%
    11:00 +10°C° 0.3 mm 1 m/S 646 mmHg 85%
    12:00 +10°C° 0.4 mm 2 m/S 646 mmHg 84%
    13:00 +10°C° 0.4 mm 2 m/S 646 mmHg 82%
    14:00 +10°C° 0.4 mm 2 m/S 645 mmHg 81%
    15:00 +10°C° 0.3 mm 2 m/S 645 mmHg 83%
    16:00 +10°C° 0.3 mm 3 m/S 645 mmHg 85%
    17:00 +9°C° 0.3 mm 3 m/S 645 mmHg 88%
    18:00 +9°C° 0.2 mm 3 m/S 645 mmHg 89%
    19:00 +8°C° 0.2 mm 3 m/S 645 mmHg 91%
    20:00 +8°C° 0.2 mm 3 m/S 645 mmHg 93%
    21:00 +7°C° 1.2 mm 3 m/S 645 mmHg 94%
    22:00 +6°C° 1.2 mm 4 m/S 645 mmHg 95%
    23:00 +5°C° 1.2 mm 5 m/S 645 mmHg 95%
    Mehr zeigen